EZY45WJ EGAC-EGGW

Flight info

Callsign EZY45WJ
Flight time 1h 6m
Altitude 25000
Route DUFFY L10 RINGA Q39 BABGU/N0458F330 DCT ETIGA DCT INKOB Q39 NOMSU UQ4 LISTO
Aircraft A319/M-SDE3FGHIRWY/LB1

Departure

Time 2026-04-30 12:52
Airport George Best Belfast City Airport (EGAC)

Arrival

Time 2026-04-30 13:58
Airport London Luton Airport (EGGW)
Time Latitude Longitude Altitude Speed Heading
2026-04-30 12:35 54.61498 -5.87143 22 ft 0 kts 156°
2026-04-30 12:38 54.61498 -5.87144 22 ft 0 kts 156°
2026-04-30 12:44 54.61504 -5.87148 21 ft 4 kts 156°
2026-04-30 12:44 54.61524 -5.87164 23 ft 3 kts 156°
2026-04-30 12:45 54.61549 -5.87177 22 ft 4 kts 179°
2026-04-30 12:45 54.61574 -5.87169 21 ft 4 kts 211°
2026-04-30 12:45 54.61584 -5.87158 23 ft 1 kts 216°
2026-04-30 12:48 54.61577 -5.87167 24 ft 3 kts 216°
2026-04-30 12:48 54.61553 -5.87197 24 ft 7 kts 216°
2026-04-30 12:49 54.61507 -5.87254 21 ft 9 kts 215°
2026-04-30 12:49 54.61454 -5.87318 21 ft 10 kts 214°
2026-04-30 12:49 54.61402 -5.87407 21 ft 11 kts 233°
2026-04-30 12:49 54.61340 -5.87498 20 ft 13 kts 214°
2026-04-30 12:50 54.61257 -5.87596 18 ft 16 kts 214°
2026-04-30 12:50 54.61173 -5.87695 16 ft 10 kts 214°
2026-04-30 12:50 54.61119 -5.87760 18 ft 8 kts 215°
2026-04-30 12:50 54.61086 -5.87822 19 ft 7 kts 245°
2026-04-30 12:51 54.61093 -5.87921 19 ft 10 kts 299°
2026-04-30 12:51 54.61134 -5.88020 18 ft 9 kts 311°
2026-04-30 12:51 54.61181 -5.88004 19 ft 0 kts 34°
2026-04-30 12:51 54.61211 -5.87968 18 ft 30 kts 35°
2026-04-30 12:52 54.61639 -5.87456 16 ft 114 kts 34°
2026-04-30 12:52 54.62419 -5.86514 330 ft 145 kts 41°
2026-04-30 12:52 54.63249 -5.85483 1068 ft 147 kts 40°
2026-04-30 12:52 54.64119 -5.84386 1672 ft 166 kts 45°
2026-04-30 12:53 54.65096 -5.83086 2170 ft 189 kts 46°
2026-04-30 12:53 54.66071 -5.81418 2608 ft 205 kts 67°
2026-04-30 12:53 54.66393 -5.78991 3110 ft 217 kts 102°
2026-04-30 12:53 54.65735 -5.76601 3668 ft 233 kts 138°
2026-04-30 12:54 54.64299 -5.75235 4639 ft 240 kts 158°
2026-04-30 12:54 54.62740 -5.74112 5694 ft 245 kts 157°
2026-04-30 12:54 54.61133 -5.72925 6741 ft 250 kts 156°
2026-04-30 12:54 54.59551 -5.71743 7783 ft 253 kts 156°
2026-04-30 12:55 54.57929 -5.70526 8813 ft 256 kts 157°
2026-04-30 12:55 54.56289 -5.69294 9865 ft 259 kts 157°
2026-04-30 12:55 54.54612 -5.68036 10603 ft 272 kts 157°
2026-04-30 12:55 54.52804 -5.66686 11110 ft 291 kts 157°
2026-04-30 12:56 54.50925 -5.65290 11935 ft 297 kts 157°
2026-04-30 12:56 54.49016 -5.63877 12832 ft 301 kts 157°
2026-04-30 12:56 54.47082 -5.62450 13749 ft 304 kts 157°
2026-04-30 12:56 54.45129 -5.61013 14566 ft 307 kts 157°
2026-04-30 12:57 54.43154 -5.59558 15345 ft 311 kts 157°
2026-04-30 12:57 54.41193 -5.57952 16100 ft 315 kts 150°
2026-04-30 12:57 54.39447 -5.55640 16853 ft 321 kts 138°
2026-04-30 12:57 54.38025 -5.52641 17609 ft 328 kts 128°
2026-04-30 12:58 54.36720 -5.49394 18384 ft 332 kts 128°
2026-04-30 12:58 54.35405 -5.46132 19089 ft 334 kts 128°
2026-04-30 12:58 54.34076 -5.42849 19774 ft 336 kts 129°
2026-04-30 12:58 54.32733 -5.39549 20452 ft 339 kts 129°
2026-04-30 12:59 54.31377 -5.36225 21133 ft 342 kts 129°
2026-04-30 12:59 54.30006 -5.32875 21795 ft 345 kts 129°
2026-04-30 12:59 54.28623 -5.29502 22439 ft 348 kts 129°
2026-04-30 12:59 54.27210 -5.26117 23088 ft 351 kts 130°
2026-04-30 13:00 54.25710 -5.22814 23732 ft 353 kts 132°
2026-04-30 13:00 54.24144 -5.19555 24276 ft 356 kts 133°
2026-04-30 13:00 54.22541 -5.16300 24776 ft 359 kts 133°
2026-04-30 13:00 54.20920 -5.13021 25105 ft 363 kts 133°
2026-04-30 13:01 54.19303 -5.09733 25182 ft 357 kts 133°
2026-04-30 13:01 54.17756 -5.06552 25192 ft 340 kts 133°
2026-04-30 13:01 54.16275 -5.03487 25194 ft 331 kts 133°
2026-04-30 13:01 54.14821 -5.00473 25195 ft 328 kts 133°
2026-04-30 13:02 54.13389 -4.97518 25203 ft 327 kts 133°
2026-04-30 13:02 54.11941 -4.94535 25188 ft 326 kts 133°
2026-04-30 13:02 54.10498 -4.91562 25190 ft 326 kts 133°
2026-04-30 13:02 54.09052 -4.88589 25190 ft 326 kts 133°
2026-04-30 13:03 54.07605 -4.85623 25192 ft 325 kts 133°
2026-04-30 13:03 54.06159 -4.82660 25199 ft 325 kts 133°
2026-04-30 13:03 54.04714 -4.79700 25190 ft 325 kts 133°
2026-04-30 13:03 54.03289 -4.76702 25193 ft 326 kts 131°
2026-04-30 13:04 54.01910 -4.73642 25167 ft 326 kts 131°
2026-04-30 13:04 54.00552 -4.70554 25165 ft 326 kts 130°
2026-04-30 13:04 53.99198 -4.67458 25194 ft 326 kts 130°
2026-04-30 13:04 53.97844 -4.64369 25202 ft 326 kts 130°
2026-04-30 13:05 53.96484 -4.61289 25196 ft 326 kts 131°
2026-04-30 13:05 53.95116 -4.58216 25200 ft 326 kts 131°
2026-04-30 13:05 53.93747 -4.55154 25195 ft 326 kts 131°
2026-04-30 13:06 53.90999 -4.49043 25209 ft 326 kts 131°
2026-04-30 13:06 53.89622 -4.45993 25214 ft 325 kts 131°
2026-04-30 13:06 53.88252 -4.42951 25211 ft 325 kts 131°
2026-04-30 13:06 53.86885 -4.39907 25210 ft 324 kts 130°
2026-04-30 13:07 53.85581 -4.36853 25203 ft 325 kts 129°
2026-04-30 13:07 53.84298 -4.33703 25200 ft 325 kts 128°
2026-04-30 13:07 53.83033 -4.30541 25196 ft 325 kts 128°
2026-04-30 13:07 53.81765 -4.27376 25192 ft 324 kts 128°
2026-04-30 13:08 53.80492 -4.24227 25188 ft 324 kts 129°
2026-04-30 13:08 53.79213 -4.21082 25190 ft 324 kts 129°
2026-04-30 13:08 53.77931 -4.17947 25188 ft 324 kts 129°
2026-04-30 13:08 53.76645 -4.14811 25162 ft 324 kts 129°
2026-04-30 13:09 53.75360 -4.11682 25162 ft 324 kts 129°
2026-04-30 13:09 53.74070 -4.08554 25165 ft 324 kts 129°
2026-04-30 13:09 53.72781 -4.05435 25167 ft 324 kts 129°
2026-04-30 13:09 53.71491 -4.02321 25169 ft 324 kts 129°
2026-04-30 13:10 53.70200 -3.99205 25170 ft 324 kts 129°
2026-04-30 13:10 53.68909 -3.96092 25171 ft 324 kts 129°
2026-04-30 13:10 53.67619 -3.92984 25180 ft 324 kts 129°
2026-04-30 13:10 53.66328 -3.89876 25182 ft 323 kts 129°
2026-04-30 13:11 53.65039 -3.86777 25184 ft 323 kts 129°
2026-04-30 13:11 53.63750 -3.83680 25186 ft 322 kts 129°
2026-04-30 13:11 53.62459 -3.80591 25185 ft 322 kts 129°
2026-04-30 13:11 53.61187 -3.77553 25185 ft 322 kts 129°
2026-04-30 13:12 53.59881 -3.74430 25185 ft 322 kts 129°
2026-04-30 13:12 53.58595 -3.71351 25189 ft 322 kts 129°
2026-04-30 13:12 53.57309 -3.68274 25188 ft 321 kts 129°
2026-04-30 13:13 53.54748 -3.62178 25172 ft 321 kts 129°
2026-04-30 13:13 53.53455 -3.59116 25172 ft 321 kts 129°
2026-04-30 13:13 53.50870 -3.53001 25176 ft 321 kts 129°
2026-04-30 13:14 53.49576 -3.49944 25178 ft 321 kts 129°
2026-04-30 13:14 53.48280 -3.46883 25180 ft 321 kts 129°
2026-04-30 13:14 53.46044 -3.40372 25186 ft 326 kts 117°
2026-04-30 13:15 53.45164 -3.36862 25188 ft 326 kts 117°
2026-04-30 13:15 53.43393 -3.29848 25183 ft 327 kts 117°
2026-04-30 13:15 53.42501 -3.26345 25194 ft 326 kts 118°
2026-04-30 13:16 53.41604 -3.22850 25194 ft 326 kts 118°
2026-04-30 13:16 53.40705 -3.19354 25198 ft 327 kts 118°
2026-04-30 13:16 53.39809 -3.15860 25198 ft 327 kts 118°
2026-04-30 13:17 53.38086 -3.08809 25206 ft 328 kts 116°
2026-04-30 13:17 53.37292 -3.05228 25182 ft 328 kts 115°
2026-04-30 13:17 53.35986 -2.99252 25187 ft 329 kts 115°
2026-04-30 13:18 53.34926 -2.94442 25191 ft 330 kts 115°
2026-04-30 13:18 53.33326 -2.87294 25197 ft 330 kts 115°
2026-04-30 13:18 53.32503 -2.83648 25200 ft 331 kts 115°
2026-04-30 13:19 53.31700 -2.80099 25201 ft 331 kts 115°
2026-04-30 13:19 53.30885 -2.76503 25205 ft 331 kts 115°
2026-04-30 13:19 53.30032 -2.72940 25207 ft 329 kts 120°
2026-04-30 13:19 53.29023 -2.69520 25212 ft 328 kts 120°
2026-04-30 13:20 53.28015 -2.66093 25219 ft 329 kts 120°
2026-04-30 13:20 53.27009 -2.62667 25223 ft 329 kts 120°
2026-04-30 13:20 53.26002 -2.59237 25227 ft 329 kts 120°
2026-04-30 13:20 53.24996 -2.55811 25202 ft 329 kts 120°
2026-04-30 13:21 53.23990 -2.52388 25201 ft 329 kts 120°
2026-04-30 13:21 53.22977 -2.48954 25204 ft 330 kts 120°
2026-04-30 13:21 53.21963 -2.45525 25217 ft 330 kts 120°
2026-04-30 13:22 53.19922 -2.38655 25223 ft 331 kts 120°
2026-04-30 13:22 53.18899 -2.35216 25225 ft 331 kts 120°
2026-04-30 13:22 53.16849 -2.28349 25229 ft 331 kts 120°
2026-04-30 13:23 53.15825 -2.24920 25228 ft 331 kts 120°
2026-04-30 13:23 53.13239 -2.18713 25235 ft 325 kts 139°
2026-04-30 13:24 53.09646 -2.14185 25230 ft 324 kts 145°
2026-04-30 13:24 53.06005 -2.09765 25228 ft 324 kts 144°
2026-04-30 13:25 53.02365 -2.05344 25220 ft 324 kts 144°
2026-04-30 13:25 52.98722 -2.00919 25215 ft 325 kts 144°
2026-04-30 13:26 52.93241 -1.94279 25216 ft 326 kts 144°
2026-04-30 13:26 52.89569 -1.89852 25219 ft 327 kts 144°
2026-04-30 13:27 52.85892 -1.85421 25218 ft 327 kts 144°
2026-04-30 13:28 52.80376 -1.78800 25229 ft 327 kts 144°
2026-04-30 13:28 52.76693 -1.74395 25232 ft 327 kts 144°
2026-04-30 13:28 52.74844 -1.72209 25237 ft 327 kts 147°
2026-04-30 13:29 52.70845 -1.68675 25141 ft 326 kts 152°
2026-04-30 13:29 52.66828 -1.65211 24741 ft 325 kts 152°
2026-04-30 13:30 52.60847 -1.60065 24018 ft 322 kts 152°
2026-04-30 13:31 52.56887 -1.56677 23536 ft 320 kts 152°
2026-04-30 13:31 52.50985 -1.51641 22739 ft 317 kts 152°
2026-04-30 13:32 52.47750 -1.48880 22384 ft 314 kts 152°
2026-04-30 13:32 52.43222 -1.45027 21770 ft 316 kts 152°
2026-04-30 13:33 52.39334 -1.41726 21298 ft 314 kts 152°
2026-04-30 13:33 52.36091 -1.38980 20882 ft 312 kts 152°
2026-04-30 13:34 52.34261 -1.37062 20220 ft 319 kts 138°
2026-04-30 13:34 52.32327 -1.26743 18814 ft 330 kts 95°
2026-04-30 13:35 52.32269 -1.23003 18392 ft 328 kts 95°
2026-04-30 13:35 52.32165 -1.15599 17582 ft 323 kts 95°
2026-04-30 13:36 52.32058 -1.08330 16818 ft 317 kts 95°
2026-04-30 13:36 52.31998 -1.04739 16443 ft 315 kts 95°
2026-04-30 13:36 52.31880 -0.97632 15701 ft 311 kts 95°
2026-04-30 13:37 52.31820 -0.94116 15345 ft 309 kts 95°
2026-04-30 13:37 52.31693 -0.87139 14622 ft 305 kts 95°
2026-04-30 13:38 52.31559 -0.80221 13671 ft 304 kts 95°
2026-04-30 13:38 52.31494 -0.76807 13291 ft 297 kts 95°
2026-04-30 13:38 52.31370 -0.70157 12589 ft 290 kts 95°
2026-04-30 13:39 52.31246 -0.63631 11887 ft 285 kts 95°
2026-04-30 13:39 52.31116 -0.57259 11191 ft 280 kts 96°
2026-04-30 13:40 52.31048 -0.54087 10835 ft 278 kts 96°
2026-04-30 13:40 52.30982 -0.50942 10480 ft 276 kts 96°
2026-04-30 13:40 52.30915 -0.47820 10118 ft 274 kts 96°
2026-04-30 13:40 52.30847 -0.44713 9725 ft 272 kts 96°
2026-04-30 13:41 52.30780 -0.41644 9363 ft 269 kts 96°
2026-04-30 13:41 52.30713 -0.38567 8992 ft 266 kts 96°
2026-04-30 13:41 52.30646 -0.35609 8625 ft 263 kts 96°
2026-04-30 13:41 52.30577 -0.32599 8281 ft 259 kts 96°
2026-04-30 13:42 52.30513 -0.29765 8157 ft 247 kts 96°
2026-04-30 13:42 52.30435 -0.27027 8048 ft 234 kts 101°
2026-04-30 13:42 52.28746 -0.22957 8013 ft 222 kts 151°
2026-04-30 13:43 52.27266 -0.22237 8013 ft 225 kts 168°
2026-04-30 13:43 52.25717 -0.21800 8021 ft 226 kts 168°
2026-04-30 13:43 52.24166 -0.21360 8009 ft 226 kts 167°
2026-04-30 13:43 52.22618 -0.20920 8012 ft 226 kts 168°
2026-04-30 13:44 52.21046 -0.20977 7872 ft 231 kts 191°
2026-04-30 13:44 52.19633 -0.22274 7748 ft 241 kts 218°
2026-04-30 13:44 52.18456 -0.24243 7625 ft 243 kts 221°
2026-04-30 13:44 52.17292 -0.26229 7502 ft 242 kts 220°
2026-04-30 13:45 52.14973 -0.30183 7262 ft 240 kts 220°
2026-04-30 13:45 52.13815 -0.32144 7140 ft 240 kts 220°
2026-04-30 13:45 52.12660 -0.34096 7020 ft 239 kts 220°
2026-04-30 13:46 52.11508 -0.36038 6902 ft 238 kts 220°
2026-04-30 13:46 52.10361 -0.37975 6781 ft 237 kts 220°
2026-04-30 13:46 52.09217 -0.39906 6658 ft 237 kts 220°
2026-04-30 13:46 52.08071 -0.41837 6534 ft 237 kts 220°
2026-04-30 13:47 52.06927 -0.43762 6417 ft 237 kts 220°
2026-04-30 13:47 52.05781 -0.45690 6260 ft 237 kts 220°
2026-04-30 13:47 52.04650 -0.47591 6105 ft 229 kts 220°
2026-04-30 13:47 52.03565 -0.49420 5948 ft 223 kts 219°
2026-04-30 13:48 52.02503 -0.51204 5780 ft 216 kts 219°
2026-04-30 13:48 52.01478 -0.52928 5652 ft 209 kts 219°
2026-04-30 13:48 52.00487 -0.54594 5529 ft 202 kts 219°
2026-04-30 13:48 51.99512 -0.56227 5403 ft 201 kts 218°
2026-04-30 13:49 51.98538 -0.57850 5279 ft 200 kts 218°
2026-04-30 13:49 51.97570 -0.59459 5151 ft 199 kts 218°
2026-04-30 13:49 51.96609 -0.61061 5030 ft 198 kts 218°
2026-04-30 13:49 51.95649 -0.62664 4903 ft 198 kts 218°
2026-04-30 13:50 51.94689 -0.64270 4772 ft 199 kts 218°
2026-04-30 13:50 51.92768 -0.67467 4395 ft 198 kts 217°
2026-04-30 13:50 51.91809 -0.69062 4194 ft 198 kts 218°
2026-04-30 13:51 51.90850 -0.70658 3991 ft 198 kts 218°
2026-04-30 13:51 51.89887 -0.72257 3783 ft 198 kts 217°
2026-04-30 13:51 51.88923 -0.73857 3600 ft 198 kts 217°
2026-04-30 13:51 51.87874 -0.75165 3499 ft 184 kts 196°
2026-04-30 13:52 51.86675 -0.75630 3385 ft 173 kts 174°
2026-04-30 13:52 51.85518 -0.75318 3258 ft 168 kts 159°
2026-04-30 13:52 51.84386 -0.74787 3135 ft 172 kts 159°
2026-04-30 13:52 51.83229 -0.74255 3005 ft 174 kts 159°
2026-04-30 13:53 51.82099 -0.73599 2879 ft 171 kts 141°
2026-04-30 13:53 51.81467 -0.72057 2756 ft 169 kts 102°
2026-04-30 13:53 51.81664 -0.70161 2674 ft 176 kts 75°
2026-04-30 13:53 51.82011 -0.68262 2548 ft 175 kts 80°
2026-04-30 13:54 51.82322 -0.66367 2463 ft 174 kts 79°
2026-04-30 13:54 51.82644 -0.64493 2393 ft 172 kts 78°
2026-04-30 13:54 51.82969 -0.62630 2318 ft 171 kts 78°
2026-04-30 13:54 51.83291 -0.60787 2235 ft 170 kts 79°
2026-04-30 13:55 51.83614 -0.58940 2166 ft 172 kts 78°
2026-04-30 13:55 51.83942 -0.57072 2094 ft 172 kts 78°
2026-04-30 13:55 51.84264 -0.55231 2013 ft 168 kts 77°
2026-04-30 13:55 51.84580 -0.53424 2011 ft 169 kts 78°
2026-04-30 13:56 51.84900 -0.51589 2017 ft 169 kts 79°
2026-04-30 13:56 51.85222 -0.49747 1936 ft 168 kts 79°
2026-04-30 13:56 51.85522 -0.48040 1771 ft 151 kts 78°
2026-04-30 13:56 51.85790 -0.46509 1605 ft 132 kts 79°
2026-04-30 13:57 51.86028 -0.45134 1444 ft 127 kts 78°
2026-04-30 13:57 51.86271 -0.43771 1303 ft 124 kts 79°
2026-04-30 13:57 51.86501 -0.42460 1091 ft 121 kts 81°
2026-04-30 13:57 51.86726 -0.41160 891 ft 122 kts 82°
2026-04-30 13:58 51.86953 -0.39820 738 ft 123 kts 77°
2026-04-30 13:58 51.87397 -0.37232 521 ft 100 kts 75°
2026-04-30 13:58 51.87512 -0.36565 525 ft 39 kts 74°
2026-04-30 13:59 51.87581 -0.36157 517 ft 35 kts 75°
2026-04-30 13:59 51.87630 -0.35927 516 ft 14 kts 38°
2026-04-30 13:59 51.87715 -0.35939 516 ft 10 kts 342°
2026-04-30 13:59 51.87776 -0.36009 517 ft 11 kts 298°
2026-04-30 14:00 51.87776 -0.36124 518 ft 11 kts 257°
2026-04-30 14:00 51.87729 -0.36385 519 ft 13 kts 254°
2026-04-30 14:00 51.87705 -0.36522 520 ft 13 kts 254°
2026-04-30 14:01 51.87682 -0.36658 521 ft 12 kts 255°
2026-04-30 14:01 51.87660 -0.36788 524 ft 11 kts 255°
2026-04-30 14:01 51.87640 -0.36906 526 ft 11 kts 255°
2026-04-30 14:01 51.87615 -0.37048 522 ft 15 kts 254°
2026-04-30 14:02 51.87586 -0.37215 522 ft 13 kts 255°
2026-04-30 14:02 51.87577 -0.37356 522 ft 13 kts 283°
2026-04-30 14:02 51.87637 -0.37465 523 ft 14 kts 329°
2026-04-30 14:02 51.87707 -0.37593 519 ft 17 kts 294°
2026-04-30 14:03 51.87753 -0.37757 523 ft 13 kts 295°
2026-04-30 14:03 51.87782 -0.37854 523 ft 4 kts 296°
2026-04-30 14:03 51.87802 -0.37874 523 ft 4 kts
2026-04-30 14:03 51.87829 -0.37852 523 ft 4 kts 28°
2026-04-30 14:04 51.87840 -0.37843 523 ft 1 kts 28°